Wind_Speed
13 12 12 11 10 11 11 11 12 12 12 12 13 13 13 13 13 12 12 12 12 11 12 13 13 14 15 16 17 18 18 18 18 19 26 25 15 14 13 11 13 16 17 15 13 11 11 11 9 9 10 11 10 8 10 11 8 5 2 2 3 5 5 4 6 4 3 5 7 11 13 4 3 8 19 17 18 22 18 10 13 10 12 24 21 29 38 31
14 13 13 12 12 12 11 11 12 12 12 12 13 13 13 13 13 13 13 14 13 12 12 12 13 13 15 15 15 16 18 18 19 24 30 22 14 14 15 14 15 17 17 16 14 12 11 10 8 9 11 10 7 7 8 9 11 7 3 2 5 4 5 5 7 5 5 6 9 15 16 4 5 6 16 12 10 17 16 12 18 19 19 22 26 36 36 32
16 15 15 14 13 13 12 11 12 13 13 13 13 13 13 13 14 13 14 14 14 13 12 13 12 13 14 13 13 14 15 16 20 29 28 20 18 16 15 17 18 18 17 16 13 10 9 8 8 9 11 8 7 8 7 7 9 10 5 3 6 5 6 11 13 12 13 11 8 13 17 5 7 5 9 10 9 10 11 15 19 24 26 29 35 38 34 33
17 16 16 15 14 14 13 13 12 13 13 13 13 13 13 13 13 14 14 14 14 13 13 13 12 13 13 10 10 12 10 12 17 24 19 14 20 19 17 18 19 19 17 16 12 9 8 7 7 7 7 4 6 6 5 8 7 7 8 4 5 5 6 14 16 17 19 14 9 10 12 6 6 6 11 17 12 2 8 24 29 31 36 39 41 38 35 35
16 16 16 15 15 15 14 14 13 13 14 14 13 14 13 13 13 14 14 14 13 13 13 13 12 13 11 8 9 9 4 5 7 8 6 9 18 20 19 19 21 21 18 15 13 9 9 9 7 5 5 2 2 2 3 11 9 3 5 5 7 7 6 13 15 16 17 12 10 6 6 5 4 9 18 17 8 7 16 28 35 41 43 44 44 39 37 35
18 17 16 16 16 15 15 14 14 14 15 15 15 14 13 13 13 13 14 14 12 12 13 13 12 12 10 7 8 7 5 3 1 3 2 6 13 20 21 20 23 23 19 17 14 11 10 10 9 5 4 2 2 4 5 10 9 4 5 5 11 13 9 15 19 19 16 8 7 5 5 3 4 9 15 6 2 10 20 23 30 39 42 44 44 40 39 36
21 20 19 17 16 16 16 15 14 14 15 15 16 15 13 13 13 13 14 14 12 11 12 13 12 12 8 5 8 9 12 16 7 3 2 2 7 18 22 21 23 24 23 21 16 14 11 9 11 8 4 2 3 6 9 10 8 6 4 4 12 17 14 20 25 24 20 14 14 11 7 2 8 8 7 1 3 12 19 22 30 34 37 40 39 38 38 36
22 21 21 20 18 17 17 16 14 14 14 15 16 15 14 13 14 14 13 14 13 11 11 12 12 12 6 4 7 7 16 24 15 7 3 3 4 9 20 24 24 24 25 23 19 15 12 11 13 10 4 3 5 4 7 7 6 6 5 7 11 15 17 24 27 26 26 21 15 9 2 3 10 10 5 5 11 17 23 29 33 32 32 35 35 35 35 34
22 22 21 21 21 19 18 18 16 14 14 14 15 15 14 13 14 14 13 13 12 11 11 10 12 10 4 5 6 5 18 26 18 14 11 4 4 6 12 21 23 24 24 22 19 16 14 14 16 13 6 5 6 4 3 3 4 6 10 12 10 13 19 22 23 24 26 17 3 4 4 8 15 13 7 6 16 21 27 33 35 34 32 31 31 32 33 32
23 22 22 22 22 21 20 19 19 16 14 14 15 14 14 14 14 14 13 13 12 11 11 10 11 8 3 7 5 4 17 20 16 18 17 12 6 7 8 13 19 20 21 21 19 19 19 16 14 13 8 5 5 4 3 5 4 4 9 12 12 17 21 17 16 22 21 12 4 9 6 10 12 7 4 8 19 25 30 33 34 34 31 30 30 29 27 25
23 22 22 22 22 22 22 21 20 18 15 14 15 15 15 15 14 14 13 13 12 11 10 9 10 8 6 8 7 9 14 12 11 17 21 18 13 9 8 10 14 16 17 19 20 21 21 17 11 9 6 4 3 3 3 4 6 8 7 7 11 14 16 13 12 17 14 6 8 15 8 5 4 3 8 15 22 27 31 33 32 31 29 29 29 26 24 22
24 23 22 22 22 22 22 22 21 20 18 15 15 16 15 15 15 14 13 13 12 11 10 9 9 9 8 10 19 22 16 12 11 14 22 22 17 13 11 12 14 14 14 16 20 21 20 19 14 10 7 3 2 1 3 7 10 11 7 4 8 6 7 10 10 14 10 2 11 19 6 2 2 4 17 22 24 26 28 30 29 27 27 27 28 27 25 24
25 25 23 22 22 22 22 22 22 21 19 17 16 16 15 15 15 14 13 13 12 10 9 9 9 9 7 12 27 28 17 13 13 14 19 21 19 16 13 14 15 14 14 14 16 18 19 19 18 17 12 3 2 3 6 11 10 9 4 1 4 6 5 7 8 11 9 7 10 15 3 5 4 6 22 25 26 27 24 24 24 24 24 26 28 27 26 26
24 24 24 23 21 21 22 22 22 22 20 18 17 16 15 15 15 14 13 13 11 10 9 8 10 8 7 17 28 26 21 19 18 16 18 18 17 17 15 14 14 13 13 12 12 12 14 17 16 17 14 9 8 8 9 8 5 4 2 1 1 0 5 7 4 7 6 10 9 10 3 5 4 10 24 27 30 31 25 22 22 23 24 25 28 27 26 27
25 24 24 24 22 22 23 23 22 22 22 19 17 16 15 15 16 14 12 12 10 9 8 7 8 6 8 21 25 18 21 25 23 18 17 16 16 17 18 16 14 13 12 11 9 8 9 12 13 11 9 9 8 5 4 4 3 2 0 3 3 3 5 8 3 8 9 6 2 6 3 3 4 13 23 27 30 29 26 23 22 24 26 28 29 28 29 28
25 24 24 24 23 22 23 23 22 22 24 20 18 17 16 16 15 13 11 10 8 7 8 5 4 6 5 14 15 11 17 23 23 19 16 16 17 19 19 17 16 15 13 12 9 9 7 8 11 10 8 5 3 2 3 3 4 3 1 2 2 3 3 5 4 6 8 3 2 2 4 3 4 13 23 27 28 27 24 21 22 27 29 30 30 31 31 29
23 24 24 23 23 22 22 22 21 23 24 20 18 18 18 16 14 13 11 7 6 5 7 4 2 5 8 10 10 9 15 20 22 22 20 19 20 21 18 16 17 15 15 13 11 12 10 9 9 6 6 4 3 4 2 2 3 3 1 2 3 3 3 1 4 5 2 3 1 0 3 3 6 14 21 24 23 21 21 23 26 28 28 30 31 31 31 30
22 23 23 23 22 22 21 21 21 22 24 21 18 19 19 17 14 14 11 7 4 3 6 7 6 1 10 15 14 10 10 14 19 22 22 21 21 20 16 14 13 12 13 12 12 13 11 9 7 3 2 3 3 5 4 5 5 3 3 2 3 2 2 2 4 4 2 3 3 3 1 2 8 14 19 25 23 17 19 26 29 28 29 31 31 32 30 29
21 21 22 22 21 21 21 20 20 21 23 21 19 20 20 17 13 12 11 10 9 7 2 11 16 5 3 5 9 12 9 8 13 17 18 19 21 20 16 14 10 8 9 6 7 12 10 4 4 4 4 5 6 6 7 6 7 7 5 4 3 2 3 4 5 4 2 4 3 6 4 4 11 12 15 24 26 21 19 24 27 26 29 31 31 32 31 29
21 20 21 22 20 19 19 19 20 21 21 20 19 20 17 10 6 6 10 15 19 16 4 11 27 20 7 2 2 7 9 7 10 15 16 18 21 19 15 14 9 6 6 5 5 9 10 5 4 7 6 6 7 8 9 7 6 6 4 3 3 3 4 4 4 5 2 2 3 5 7 8 12 12 14 21 21 14 12 15 22 26 28 31 31 31 30 28
20 20 20 21 20 19 19 19 19 20 19 19 19 17 12 5 2 1 4 12 21 25 17 13 22 26 23 15 10 11 8 6 9 14 18 19 19 15 13 12 6 3 4 6 5 5 8 7 7 7 7 8 7 8 9 7 5 4 4 3 3 2 5 5 4 5 1 2 3 4 8 8 12 13 13 17 16 10 14 16 20 25 27 29 30 30 29 27
19 19 19 19 19 18 18 18 18 19 19 19 18 17 16 11 5 3 3 7 15 21 25 23 24 30 32 28 26 21 11 8 11 14 19 21 18 13 12 10 6 3 3 5 5 3 5 6 6 7 6 7 6 7 8 7 6 3 3 3 2 3 4 5 4 5 1 3 3 3 7 6 11 12 12 17 17 21 29 27 25 28 27 28 29 29 29 29
20 18 18 19 18 16 17 17 17 20 20 19 18 17 17 12 6 8 6 7 11 15 21 24 28 34 36 31 26 19 10 8 11 14 19 19 19 17 13 8 5 5 4 5 6 5 4 6 6 7 6 7 4 5 7 5 5 4 4 3 3 4 1 2 4 6 2 2 2 4 5 3 7 8 10 15 16 20 27 23 19 23 23 25 29 29 30 31
21 18 17 18 16 15 17 15 15 20 21 20 17 11 11 11 6 7 6 5 7 11 17 23 27 33 36 30 18 12 15 14 12 14 17 17 19 18 12 8 7 6 5 6 7 6 4 6 7 8 6 8 6 5 7 5 4 3 5 6 4 4 3 3 3 6 5 3 1 6 5 0 5 8 8 5 4 10 17 16 16 19 17 21 27 28 29 31
20 17 16 16 15 15 16 15 16 20 21 19 11 4 7 8 5 5 4 4 4 6 10 17 21 28 34 25 14 12 13 15 19 18 14 14 19 15 7 8 8 6 7 7 6 6 6 6 8 10 5 7 7 6 7 7 4 3 5 9 7 5 4 3 4 5 6 5 2 5 4 3 4 10 11 6 5 7 10 12 17 19 19 23 26 26 27 28
19 17 15 15 14 14 14 15 17 19 19 19 11 2 6 6 2 6 3 2 4 3 3 10 13 15 20 18 17 14 4 9 22 22 14 13 19 16 7 5 5 5 7 6 3 3 5 5 7 9 7 7 7 6 6 7 6 3 5 8 8 7 4 3 3 2 1 4 4 3 5 2 4 7 10 10 10 8 6 8 14 18 22 27 27 24 26 26
17 15 14 14 14 13 12 12 14 16 16 15 8 1 7 7 2 6 4 2 5 5 6 8 12 6 10 20 25 16 2 5 15 19 20 17 18 18 10 4 3 4 5 5 3 2 6 8 6 8 8 7 7 5 5 8 7 4 4 7 9 7 5 5 4 3 3 4 5 1 5 4 2 6 6 10 14 11 9 9 11 19 24 27 27 25 25 25
14 13 13 13 14 15 13 12 14 17 17 11 2 2 6 2 8 7 3 1 2 5 3 7 12 6 9 23 30 20 4 5 9 14 23 21 19 17 9 6 6 5 6 6 5 3 5 10 7 7 8 6 6 5 7 9 5 5 4 8 8 8 7 6 5 5 2 1 6 4 3 4 3 4 2 8 13 13 14 13 12 19 25 26 26 25 24 24
13 13 14 13 14 16 15 14 17 19 17 8 7 7 3 7 11 4 1 1 2 3 0 7 10 6 11 19 24 22 9 2 5 16 24 20 19 14 5 9 9 5 7 6 5 4 4 11 11 8 6 6 6 5 8 10 5 5 5 4 2 4 3 4 4 4 1 1 6 6 4 4 3 2 4 8 12 13 12 12 13 18 23 24 24 26 26 24
13 13 14 13 14 16 14 15 18 16 12 10 8 5 2 12 9 1 2 1 1 1 3 7 8 9 16 13 11 16 9 3 2 17 22 16 19 15 6 12 10 5 5 4 6 5 3 9 13 8 6 6 7 5 7 11 7 3 4 1 1 2 3 2 1 2 2 2 8 8 7 6 2 3 6 7 9 14 12 9 10 12 18 23 25 28 28 26
13 13 13 14 15 14 12 13 14 11 8 7 4 1 8 10 3 1 4 2 2 0 2 4 5 10 16 11 7 10 6 3 1 12 14 8 13 13 7 11 8 5 5 4 6 7 4 5 7 6 9 8 6 5 6 8 7 3 3 3 1 3 4 4 3 2 2 5 8 6 6 7 5 5 6 5 5 13 14 12 14 14 18 25 27 29 30 27
11 12 12 13 14 12 11 11 9 8 8 6 4 7 9 3 1 2 3 4 2 1 1 3 4 9 12 8 8 9 6 2 1 6 9 6 8 9 7 7 5 5 6 4 4 5 6 4 1 4 11 12 7 3 4 4 4 5 3 4 3 1 1 2 3 1 3 6 6 3 3 4 4 4 6 8 6 12 15 14 19 22 24 27 27 28 30 28
9 10 10 12 12 9 10 11 9 7 7 6 4 7 5 2 2 3 3 3 2 4 4 0 4 9 11 7 7 9 5 3 2 3 6 7 8 7 7 7 6 6 4 3 4 4 4 5 3 4 7 12 10 6 5 4 5 8 6 5 5 3 3 4 3 1 3 4 3 2 2 3 3 2 3 5 6 11 12 11 17 21 24 27 26 27 30 29
5 7 8 9 8 6 7 12 11 6 5 6 3 4 3 2 3 2 1 2 5 6 6 4 2 8 9 6 6 8 5 2 4 4 4 7 8 7 7 7 6 5 4 5 4 5 6 5 6 7 4 9 12 9 8 5 5 6 5 6 5 4 5 4 4 3 3 4 2 3 0 2 2 1 2 3 3 11 15 15 19 21 23 25 24 27 30 30
1 3 5 6 5 7 10 15 10 3 5 8 2 4 3 3 2 2 2 4 6 5 10 9 2 8 6 3 3 7 5 2 4 4 4 7 6 6 7 4 6 5 5 6 3 3 8 7 6 7 7 9 10 9 8 7 4 4 4 6 4 6 5 1 3 6 4 2 1 2 1 2 2 1 2 3 9 15 20 22 24 22 23 25 24 26 29 29
2 2 3 4 4 7 11 12 5 0 5 7 1 3 2 2 1 3 4 6 6 7 12 7 5 6 3 2 3 6 4 1 3 3 2 5 5 5 7 4 5 7 5 6 3 2 7 5 4 5 8 9 10 11 10 8 5 2 4 6 5 5 6 3 1 1 3 3 1 1 1 1 1 2 3 8 11 12 15 20 22 20 22 24 22 24 27 27
3 3 1 2 5 9 10 8 3 3 3 3 1 1 2 1 4 5 6 9 9 10 8 2 3 3 3 2 3 7 4 2 2 2 1 3 4 5 7 4 5 8 6 5 2 2 5 3 5 5 8 11 12 12 10 10 9 5 5 6 3 3 3 3 2 2 4 2 2 1 2 2 2 1 2 10 12 11 12 15 17 17 20 21 19 22 26 25
6 7 4 3 11 13 9 6 4 3 2 1 0 1 2 1 6 7 9 12 11 10 5 1 0 2 4 3 3 5 6 2 2 3 2 2 3 5 8 5 5 9 8 5 2 2 3 1 6 6 9 9 8 6 5 8 7 5 6 7 5 4 2 1 3 2 2 1 2 1 2 2 2 2 5 11 12 12 13 13 12 13 17 19 20 23 26 25
5 7 7 7 12 11 7 6 5 3 1 0 0 1 1 4 5 8 12 13 10 8 4 2 3 1 2 4 4 4 6 4 3 2 2 3 3 5 9 7 5 8 10 7 4 2 2 2 4 4 7 6 5 4 4 6 2 4 6 6 3 3 4 3 2 3 4 3 1 2 2 3 2 4 8 13 12 11 13 13 10 12 18 22 23 25 27 26
5 5 5 6 10 9 8 7 6 4 0 1 1 2 4 5 4 8 14 12 8 5 3 3 4 3 1 0 2 4 5 5 5 2 1 4 4 4 8 8 6 8 10 8 5 1 1 2 2 4 1 4 4 4 7 7 4 4 6 5 3 2 2 2 1 2 5 5 3 3 2 4 3 4 8 13 13 12 15 14 11 15 21 23 24 27 27 27
7 4 4 8 10 10 9 6 3 1 1 0 1 2 5 6 4 9 14 11 7 6 7 7 5 3 2 2 1 3 5 4 5 3 1 4 5 2 6 9 8 8 8 6 5 3 1 2 2 2 0 4 5 4 7 10 9 7 6 6 5 4 4 3 2 2 3 4 4 4 3 5 4 2 5 11 11 11 15 15 12 17 24 25 26 28 28 28
6 4 5 11 11 10 8 3 1 1 2 1 2 3 5 6 4 8 11 8 5 7 7 6 6 5 3 3 2 2 4 4 5 4 2 4 5 3 7 12 12 11 9 5 4 4 3 3 2 2 3 5 6 3 6 11 9 7 5 4 4 5 5 6 4 3 2 3 2 3 1 5 5 2 3 7 8 10 16 18 16 19 25 27 28 29 29 29
6 5 10 11 9 9 5 1 3 2 1 2 5 6 6 5 4 6 8 6 4 5 5 4 4 4 3 3 2 1 2 4 5 5 4 4 6 8 11 15 15 11 8 5 3 3 3 2 1 2 3 3 5 4 2 5 6 4 2 3 5 4 4 6 5 4 4 3 2 3 0 4 4 1 2 8 12 13 17 21 22 21 23 28 30 29 30 29
6 6 9 9 8 9 4 1 0 1 2 3 5 6 7 7 6 7 7 5 4 4 4 4 3 3 1 1 1 2 1 2 4 7 5 3 6 12 15 17 16 9 6 7 7 6 5 2 2 1 1 3 3 1 2 2 3 3 2 3 5 5 6 5 3 3 3 3 5 5 3 5 2 3 6 10 12 12 14 20 24 24 23 27 30 29 29 28
5 5 4 6 7 5 2 1 0 1 2 4 5 5 6 6 7 11 11 10 10 8 5 5 6 6 3 2 2 2 1 2 4 7 5 2 3 7 14 20 17 10 8 12 13 11 6 2 3 4 3 2 4 5 3 4 3 1 3 5 5 7 9 5 3 4 1 2 4 5 4 3 3 7 9 10 11 11 13 17 22 25 26 26 28 29 29 28
3 3 2 3 3 4 5 4 4 2 2 3 4 3 4 3 5 12 15 13 14 13 8 7 8 6 3 4 4 3 2 1 1 3 3 2 2 2 10 20 20 14 13 16 18 13 3 2 4 5 6 6 6 7 6 4 5 1 3 5 4 6 8 6 5 3 4 3 3 3 5 6 7 9 10 11 12 11 12 16 20 24 27 27 27 28 27 26
3 2 1 2 1 4 7 9 7 4 3 4 2 3 4 4 5 7 9 10 12 11 8 4 3 1 4 4 2 2 4 5 3 3 1 1 3 3 4 13 18 19 17 16 17 11 3 2 6 4 4 4 4 6 4 5 5 2 3 3 1 5 8 8 5 5 6 6 2 5 7 10 10 10 11 13 14 13 12 16 21 24 27 27 26 26 25 24
3 1 2 3 2 1 3 6 5 5 6 4 2 3 4 6 6 5 5 8 9 5 2 1 3 4 3 2 1 1 4 5 4 3 3 2 3 3 2 0 6 15 16 12 13 9 4 4 5 3 2 4 5 1 5 8 5 4 5 3 2 3 7 9 7 6 8 7 5 7 11 11 11 13 15 15 15 16 16 20 23 25 27 26 26 26 25 25
4 2 2 4 3 3 4 6 5 5 6 5 3 3 4 6 8 6 5 5 4 4 3 3 3 4 4 3 3 1 2 2 2 3 3 2 3 2 3 3 1 6 10 8 7 4 3 4 3 5 4 6 8 5 6 10 6 5 5 3 4 3 4 5 4 4 7 5 5 10 11 5 3 8 11 12 16 19 22 24 25 26 27 27 27 27 26 27
4 3 0 3 4 6 7 7 5 4 5 4 4 4 4 5 7 5 4 3 3 5 5 4 2 1 4 5 4 1 3 1 1 3 2 1 2 3 3 1 2 1 3 6 4 2 2 3 2 6 4 4 6 6 7 9 8 7 6 5 5 5 5 5 3 4 6 4 5 11 9 1 1 5 10 15 21 23 23 25 26 26 29 29 28 28 28 29
7 5 2 2 4 4 5 5 3 3 1 2 3 3 3 5 6 5 4 3 3 3 3 2 1 1 4 5 2 2 4 3 4 6 5 3 0 5 3 2 2 1 3 4 3 1 3 1 1 6 4 2 3 3 4 7 10 8 6 6 4 4 3 2 1 2 5 8 10 10 6 4 4 9 12 16 21 22 21 23 25 26 30 32 30 29 29 28
12 9 5 3 3 2 3 3 1 2 0 2 3 3 3 6 7 5 2 2 4 5 5 2 2 3 3 3 1 3 7 9 10 10 7 2 6 11 5 4 2 3 4 3 2 2 5 5 2 4 4 3 4 2 2 4 7 3 2 1 0 1 2 2 1 0 6 11 11 6 5 6 9 12 13 13 15 17 20 25 27 27 28 29 29 29 28 26
Wind_Direction
303 303 304 304 300 299 300 303 303 304 307 308 309 309 309 312 314 313 311 307 301 297 296 286 275 269 263 263 265 264 266 263 258 254 250 248 243 240 238 221 211 217 222 217 215 225 241 239 224 215 202 192 204 209 201 205 197 179 124 156 232 229 219 206 199 208 228 294 314 329 350 319 278 96 117 124 129 132 136 125 138 161 161 168 170 161 164 167
304 303 302 302 301 299 300 300 301 304 304 305 306 307 308 312 314 315 314 311 305 300 298 292 282 275 267 264 267 268 269 269 270 258 247 247 246 237 227 215 209 216 220 218 222 229 241 237 209 199 191 185 197 196 196 201 195 184 118 176 225 223 222 228 231 269 283 293 320 314 326 311 215 128 129 127 121 129 117 110 123 123 137 156 160 162 166 168
308 306 304 300 299 299 299 297 297 299 299 300 302 304 307 309 312 313 314 313 310 307 303 297 288 278 270 265 267 270 273 281 279 262 253 253 246 234 221 212 207 213 217 215 219 227 238 224 193 187 184 191 197 188 189 186 188 193 181 214 240 225 245 266 261 270 278 287 314 307 322 334 191 163 137 133 125 134 127 135 133 130 143 154 159 163 167 168
310 308 305 299 297 297 296 296 295 296 297 299 299 299 301 306 311 310 311 313 312 312 308 304 294 278 271 268 266 267 285 304 285 268 269 258 240 232 220 209 203 209 212 211 211 213 225 205 182 178 178 205 211 204 208 195 189 192 193 202 234 224 248 267 266 270 276 285 296 295 330 353 203 180 142 132 119 106 173 161 156 153 155 158 162 165 166 170
304 306 304 298 297 296 295 296 295 297 299 299 298 298 299 304 308 309 309 309 312 310 310 309 299 284 274 264 260 257 292 337 287 268 270 241 231 224 215 206 201 207 209 207 207 206 219 209 196 180 178 209 205 208 235 216 209 204 220 208 231 243 252 269 274 277 278 289 295 294 347 338 224 168 153 144 138 191 185 171 164 162 161 160 163 165 167 171
295 296 298 296 296 295 294 295 296 299 301 301 300 298 302 301 303 310 309 309 308 305 308 310 304 291 277 257 250 229 195 216 193 105 177 223 226 213 206 203 200 205 209 207 207 208 220 214 210 198 166 184 180 197 240 232 216 229 266 228 242 249 247 269 272 271 277 291 285 285 317 292 143 151 169 176 323 177 172 168 161 160 161 160 161 164 168 173
287 290 293 292 292 293 293 292 293 297 302 303 302 300 301 298 301 308 310 312 306 300 304 308 310 296 279 252 235 215 215 231 223 119 123 133 205 205 198 196 198 204 208 210 208 207 217 211 208 202 157 178 195 209 247 250 224 222 265 253 259 259 253 268 271 271 273 271 271 277 296 235 146 150 178 48 69 155 156 153 154 155 158 159 160 164 169 172
279 283 290 291 290 291 291 291 289 294 301 303 304 303 300 298 301 302 306 311 305 304 301 305 317 300 280 236 226 223 232 234 222 209 253 47 93 186 194 192 194 202 207 212 210 203 211 206 205 199 166 222 208 209 244 253 244 224 245 258 264 266 264 270 273 272 270 270 273 266 255 137 137 129 97 85 126 146 147 147 151 153 156 158 160 165 169 172
278 276 278 284 288 288 288 292 291 292 299 303 304 303 301 299 298 299 302 307 307 308 301 305 316 305 276 227 221 234 241 240 236 232 244 267 75 114 182 193 194 202 207 210 209 206 212 211 210 200 189 237 229 240 226 205 244 211 224 248 261 268 268 270 272 269 267 268 239 128 119 121 124 112 73 108 137 143 145 147 151 154 155 158 163 168 170 171
279 276 272 274 280 284 285 290 293 293 296 299 302 301 300 299 298 300 299 301 304 305 304 302 308 309 271 231 207 226 246 248 246 233 228 233 213 129 153 194 201 207 210 210 210 211 212 213 214 208 222 255 231 246 209 185 249 244 236 254 260 264 267 265 268 269 269 273 176 143 147 144 130 109 95 137 144 146 144 147 153 155 157 160 164 168 170 169
277 277 275 270 270 276 281 286 290 293 294 294 299 299 298 298 299 300 296 296 299 302 301 292 302 304 263 234 213 222 236 239 237 224 218 224 221 188 174 197 208 212 217 219 219 217 215 215 200 188 218 245 246 275 233 232 309 313 303 293 272 265 269 258 255 263 266 288 166 149 141 149 110 100 146 146 149 149 144 148 156 156 158 160 161 167 168 164
277 276 277 274 267 268 274 281 285 289 292 293 296 297 298 300 298 295 293 294 295 298 294 287 300 291 266 246 233 227 222 228 242 224 213 217 220 211 201 204 210 215 224 230 226 222 223 222 205 196 217 237 285 302 274 308 329 320 327 324 292 312 290 245 230 243 246 295 147 135 97 337 8 127 146 146 149 148 144 149 156 157 158 158 163 169 166 163
279 276 276 276 270 264 265 273 280 285 288 291 292 295 300 301 297 294 292 289 289 293 288 283 287 280 276 253 238 232 225 229 242 223 207 210 216 216 208 203 208 215 227 239 237 231 230 230 219 219 235 259 289 282 305 321 328 314 324 185 295 352 316 247 220 227 231 258 182 140 100 286 292 152 148 149 150 148 147 150 154 156 157 159 167 171 165 167
281 278 275 275 273 264 260 263 273 279 282 288 290 293 301 299 296 293 289 285 284 286 278 273 277 272 267 253 246 244 238 234 236 218 199 201 210 215 203 192 204 211 217 232 242 243 238 236 228 227 243 257 262 288 315 329 339 318 316 294 319 345 275 281 239 192 204 256 215 138 141 249 242 159 152 156 155 151 152 154 155 155 155 161 168 171 170 172
282 280 277 276 274 268 263 257 263 272 277 285 289 293 298 294 293 290 285 281 277 277 268 273 275 259 265 264 260 256 243 239 235 212 187 196 209 210 197 188 204 210 210 217 223 238 236 224 218 219 241 251 251 289 337 343 353 14 350 311 330 176 258 301 276 178 178 244 241 116 148 214 179 163 160 160 158 153 152 156 157 155 156 161 167 172 174 175
282 281 279 277 274 271 268 260 256 264 273 282 289 293 292 289 292 287 275 270 273 268 252 270 269 224 260 273 264 250 238 234 224 204 192 204 211 202 194 197 209 211 210 206 205 226 230 207 204 211 224 227 195 129 36 347 332 2 114 244 269 199 249 314 290 220 185 181 346 88 145 175 170 166 166 163 161 156 152 154 154 155 161 164 167 171 173 175
284 281 278 276 274 271 270 262 252 258 270 279 288 290 287 289 293 279 260 249 264 250 211 187 145 218 245 261 257 241 232 227 218 213 212 214 210 201 197 206 212 217 216 210 218 232 227 206 195 209 219 194 148 130 96 272 264 326 332 221 247 205 198 279 275 263 198 140 260 69 132 174 170 163 167 167 165 159 151 152 155 158 163 166 168 171 172 175
288 282 278 276 274 269 269 263 252 255 267 275 284 285 286 292 290 269 243 222 222 163 171 177 134 224 253 249 250 233 222 229 225 223 224 216 207 204 204 205 208 218 219 218 231 223 210 201 176 167 206 171 163 146 173 215 192 198 200 196 264 233 212 246 246 241 148 122 152 159 125 148 160 161 165 168 171 176 162 155 159 162 163 167 169 171 173 176
290 286 279 276 274 269 267 265 256 253 261 271 278 281 288 294 285 259 224 201 186 154 150 197 182 173 290 254 243 232 236 248 232 228 227 211 203 208 210 209 211 216 203 196 219 202 184 174 154 183 209 186 184 167 186 201 168 176 180 158 183 212 249 242 253 263 152 121 156 167 157 148 164 164 165 170 174 182 172 156 158 162 163 167 169 172 175 176
289 288 282 276 274 269 264 264 256 248 254 266 275 283 291 289 271 247 216 213 213 208 218 197 198 214 250 70 104 237 244 246 231 221 213 202 201 208 210 211 213 210 190 159 190 192 172 174 198 201 199 186 187 181 188 188 163 162 148 161 192 196 263 255 259 294 65 119 231 178 145 156 169 170 172 168 163 171 175 159 159 162 165 169 170 173 174 173
285 285 283 278 274 268 263 265 258 247 250 262 273 280 281 264 226 297 229 234 236 231 237 230 216 233 250 250 266 291 297 272 240 211 198 193 195 200 201 198 184 194 207 162 158 173 169 197 217 199 189 179 184 189 188 181 169 163 153 200 262 209 246 257 250 290 43 143 259 151 131 163 177 175 173 157 146 167 187 180 170 166 168 172 172 171 171 172
281 281 283 279 273 268 263 266 260 247 249 258 266 270 276 279 249 267 320 272 263 248 242 245 245 251 254 252 259 277 299 287 252 213 191 186 189 191 182 173 160 182 202 159 151 157 185 222 215 192 177 161 178 194 185 181 175 168 146 155 274 244 261 282 282 319 67 153 267 167 138 182 191 176 170 163 164 179 184 183 176 168 170 175 174 171 170 171
277 276 281 279 271 266 259 262 257 243 244 252 260 271 288 299 250 237 275 279 280 265 242 238 243 248 250 251 256 259 251 254 258 224 195 183 186 187 173 154 156 177 175 166 170 159 194 240 208 182 156 148 184 202 175 183 189 169 143 153 243 238 249 284 294 339 355 185 227 151 120 181 195 175 178 174 174 180 177 176 170 166 173 176 174 172 172 171
276 271 276 278 271 263 255 258 252 238 243 250 258 284 308 308 269 237 254 263 279 268 245 236 234 239 243 246 249 236 223 232 247 224 197 183 182 183 178 156 149 178 187 171 170 169 223 249 183 159 155 164 188 204 168 170 213 207 174 191 221 207 194 226 286 336 338 331 120 108 77 135 180 174 186 155 128 170 161 155 166 172 176 174 173 175 174 172
271 266 272 276 270 262 256 260 251 238 243 248 255 336 340 300 256 219 253 281 275 263 253 234 228 239 241 238 232 219 219 234 238 225 200 187 182 172 166 165 161 189 186 159 159 179 238 246 167 156 173 176 185 206 183 167 195 244 221 209 196 169 194 264 330 357 4 331 293 118 106 274 225 183 180 139 113 167 156 156 174 172 165 168 176 180 176 173
264 260 266 270 267 260 257 260 250 241 244 245 247 20 9 341 165 179 186 334 284 221 194 200 206 233 228 208 201 199 199 247 237 225 201 190 189 177 159 164 162 179 172 153 158 182 216 212 163 167 177 177 195 218 202 166 159 236 242 203 171 149 180 260 306 13 51 271 274 149 157 245 281 206 183 158 149 161 173 175 172 159 157 169 180 181 176 176
259 256 260 265 259 252 251 249 244 243 233 224 218 101 358 359 124 169 151 357 282 175 138 180 185 195 196 185 181 174 143 227 218 219 203 185 187 188 184 167 141 165 159 142 193 211 184 185 179 180 175 178 202 216 195 158 143 224 221 153 151 161 196 229 228 208 219 264 304 293 153 125 222 223 197 161 150 151 172 181 164 155 159 173 182 180 177 178
257 255 258 259 253 247 247 245 245 239 217 197 184 318 345 39 163 168 143 331 247 153 125 182 177 167 180 179 175 175 211 184 169 206 200 181 177 185 192 188 153 163 178 159 206 242 175 186 191 175 180 196 199 186 167 153 154 222 172 128 152 174 193 212 215 225 235 302 297 289 137 128 246 252 170 157 158 158 169 174 165 162 167 174 179 180 178 175
259 256 257 255 251 246 246 248 246 235 223 239 293 291 332 139 163 171 177 222 160 152 86 167 170 162 158 162 172 186 213 227 160 182 187 185 183 182 191 189 158 156 197 171 184 231 198 194 189 168 187 201 189 174 155 158 191 208 150 106 119 141 171 199 195 211 114 122 254 256 168 157 260 255 162 170 173 169 171 173 166 166 171 172 171 173 174 170
260 258 256 252 248 243 245 249 241 232 238 264 280 290 156 151 157 164 201 217 211 156 98 152 169 152 149 147 174 196 209 286 174 163 175 189 188 187 185 182 171 157 196 169 174 225 259 194 190 183 196 186 176 181 163 174 192 156 121 121 329 18 25 26 115 126 105 236 252 238 192 172 227 228 187 184 182 174 168 162 162 165 170 168 166 168 168 166
260 254 250 248 245 240 244 245 233 224 233 253 262 167 145 150 146 220 192 283 327 81 89 157 168 143 152 155 172 194 205 279 226 153 167 177 180 189 171 172 183 157 181 194 189 230 268 199 192 178 184 176 162 185 190 189 185 136 111 137 196 314 354 3 352 69 153 247 262 237 184 170 197 222 200 203 197 178 172 165 166 171 171 167 164 165 165 164
259 249 242 245 241 235 239 233 220 211 219 251 242 166 147 121 326 211 239 314 351 325 303 174 157 147 164 173 170 180 181 204 255 160 161 150 166 189 172 174 180 150 191 204 162 212 232 231 254 163 189 189 159 164 212 211 164 156 160 132 139 258 286 253 259 205 210 241 264 243 161 169 218 243 204 194 189 186 186 180 175 172 166 163 160 161 164 163
254 245 239 240 234 236 241 217 201 214 230 263 238 173 132 73 199 210 276 314 22 338 314 189 160 158 164 178 174 172 169 176 213 179 158 150 161 186 192 192 166 138 177 169 128 186 224 280 265 181 199 192 169 163 197 212 173 170 176 161 163 163 162 215 231 238 249 240 284 295 207 209 259 300 214 210 207 186 176 173 174 166 156 156 157 158 161 161
248 237 234 235 227 239 225 186 185 223 281 297 246 153 114 137 224 252 233 299 338 332 321 330 187 162 164 189 175 156 161 213 202 170 147 151 162 187 196 197 176 130 113 147 159 178 189 251 229 195 200 180 178 190 183 159 154 172 157 137 161 172 161 203 207 184 234 236 314 340 251 194 202 310 282 247 177 141 130 134 150 151 149 154 154 153 154 155
202 218 221 221 223 235 197 168 176 235 343 332 310 139 154 191 257 324 38 334 332 332 321 319 155 148 167 209 179 157 159 216 199 161 149 162 166 184 184 188 188 154 120 159 194 178 187 235 241 207 206 173 176 196 170 136 150 184 134 128 185 194 152 106 186 175 185 198 333 350 297 208 179 354 350 138 123 112 114 125 136 141 146 149 148 147 148 150
115 168 201 214 229 224 184 160 167 11 6 340 328 152 209 217 339 349 360 343 331 326 322 320 124 132 173 180 175 185 167 133 178 157 140 165 161 178 182 178 181 172 147 158 190 177 181 242 278 202 209 198 183 183 172 165 177 167 146 170 199 168 132 102 201 143 93 137 278 326 236 253 154 31 56 123 123 113 118 128 135 138 141 143 143 142 144 146
86 122 198 244 193 178 162 147 120 66 6 324 133 150 249 290 25 8 347 340 325 316 318 324 117 125 166 159 182 190 165 76 166 159 162 177 173 183 187 189 174 179 179 153 183 202 162 245 275 179 197 222 198 184 188 179 159 141 183 192 158 123 116 107 159 11 56 143 286 338 168 187 171 230 129 133 134 135 137 137 139 139 139 140 139 139 142 145
66 80 60 130 157 156 147 132 103 71 337 293 330 309 249 318 20 11 345 338 328 320 326 327 351 115 147 167 204 184 157 156 199 166 169 201 222 190 178 185 179 185 191 155 148 238 151 236 272 192 186 214 189 167 207 200 166 144 177 175 142 162 208 104 158 177 116 160 289 359 178 202 200 209 162 151 151 148 145 144 142 142 141 137 135 137 140 143
65 68 57 117 148 147 140 131 105 66 344 74 321 300 306 335 4 2 342 337 331 324 327 334 345 10 145 165 189 179 154 168 187 162 156 178 229 214 181 175 182 185 183 162 161 245 133 128 278 233 187 175 145 142 203 215 188 94 143 167 153 156 177 164 162 160 137 156 204 151 192 242 237 210 177 166 163 152 146 148 146 141 140 138 138 138 138 141
73 74 60 114 139 139 143 136 99 76 100 176 248 295 328 337 347 336 328 327 326 316 298 320 345 342 327 119 177 173 150 154 170 165 186 183 202 240 196 173 166 178 176 170 181 224 74 144 255 284 202 151 173 202 192 183 162 125 146 177 177 118 131 147 140 117 124 140 159 146 205 251 242 211 180 167 164 160 153 149 142 137 138 139 139 138 138 139
78 76 83 123 135 143 147 137 98 86 160 182 280 295 324 333 327 315 314 314 306 285 274 285 290 281 300 324 216 163 149 153 171 171 197 192 184 227 212 185 159 156 161 171 196 199 146 164 201 292 159 178 219 219 174 174 171 160 165 185 178 138 118 132 206 256 106 126 160 154 193 255 258 225 177 169 167 163 152 140 132 136 137 138 138 139 139 138
68 69 132 136 139 151 147 127 335 332 108 60 309 298 313 323 309 301 308 313 294 261 258 269 260 244 235 220 221 182 150 152 176 181 172 191 189 198 209 191 166 155 154 166 201 188 151 131 158 251 223 207 243 259 179 180 165 142 161 178 156 135 128 141 191 225 110 103 132 119 146 263 269 270 194 163 148 142 142 133 126 131 135 135 138 139 140 140
50 91 147 148 148 156 144 46 335 347 356 300 308 299 289 292 282 283 291 293 277 256 253 257 240 225 215 203 195 172 134 143 176 193 180 190 212 218 204 184 170 161 152 163 192 172 164 140 122 272 285 288 300 324 164 168 136 122 169 157 145 158 149 144 172 181 133 135 137 102 196 266 264 245 141 126 124 128 137 136 130 130 133 136 139 140 140 141
66 93 146 160 163 164 156 54 357 313 302 298 306 285 264 256 251 259 269 259 245 266 283 266 246 245 250 105 141 197 180 133 177 197 191 194 218 216 204 189 180 172 162 180 180 168 186 187 96 118 360 349 322 27 100 159 169 173 187 167 157 135 111 116 138 106 110 190 164 137 204 259 246 132 121 120 122 123 132 138 137 135 137 140 141 142 142 143
88 72 133 174 179 182 191 63 89 269 285 285 281 270 259 251 246 248 254 253 240 240 263 276 283 297 316 48 27 302 227 145 172 191 196 231 244 211 202 197 191 183 188 186 165 155 176 188 125 142 146 159 195 192 183 185 195 200 145 160 168 136 128 139 116 96 135 214 149 144 197 232 146 133 134 134 133 130 133 139 139 139 141 143 143 144 147 148
108 53 92 181 211 244 261 293 311 301 302 293 284 278 255 244 263 253 248 254 249 236 235 262 278 299 9 41 17 343 320 322 124 148 169 229 263 245 202 198 193 188 191 181 159 146 143 171 151 150 168 181 193 218 226 163 144 160 135 145 175 158 140 120 105 138 178 159 158 199 179 152 151 154 151 150 147 144 143 144 142 142 144 146 147 148 150 151
83 55 97 155 251 273 275 287 288 269 284 301 312 313 274 260 290 271 246 250 250 230 213 243 275 59 62 36 9 349 326 332 11 52 52 237 258 301 218 194 191 190 188 175 163 149 97 186 184 151 173 213 224 222 208 126 124 144 126 120 155 154 137 127 150 188 155 134 218 232 164 156 172 172 164 162 159 155 154 154 150 146 146 148 149 149 150 152
58 41 169 168 176 216 254 261 249 237 256 270 278 297 286 280 288 282 258 259 260 243 188 52 23 53 75 97 116 360 327 340 1 2 14 358 298 321 350 194 184 188 185 172 168 158 115 180 190 112 56 341 328 276 110 102 107 90 94 96 54 123 152 154 174 182 146 148 211 196 170 174 181 177 174 170 163 156 151 151 149 145 146 148 149 151 153 155
48 44 155 180 215 255 248 250 250 240 239 235 236 252 265 279 282 279 279 281 301 353 46 79 37 15 29 67 98 35 318 20 6 337 15 1 311 23 49 11 2 187 181 166 171 167 139 177 163 103 70 1 341 337 72 100 108 63 55 45 41 75 135 128 140 155 132 138 176 162 164 191 200 180 173 155 145 142 139 142 145 146 148 150 152 155 157 157
25 360 293 209 252 272 264 264 263 243 241 235 237 255 260 274 292 305 307 319 354 3 26 64 90 12 21 45 85 178 247 157 220 290 2 12 331 44 79 224 292 319 150 151 178 200 150 192 151 97 80 347 338 351 44 87 97 73 45 21 44 69 63 60 93 122 96 83 126 135 140 247 315 132 133 135 139 139 140 145 148 150 152 153 155 159 160 160
26 16 348 259 268 269 255 258 232 194 243 239 232 279 286 276 311 336 316 327 29 43 25 30 102 66 23 30 77 227 261 242 236 268 294 293 39 80 74 259 244 170 121 132 160 147 113 129 61 91 100 285 315 5 37 79 84 73 39 13 27 65 63 48 77 159 136 122 117 121 144 204 171 131 128 137 143 144 147 151 151 154 157 157 159 163 164 163
25 30 16 320 280 280 289 291 244 162 191 242 255 303 279 271 310 330 282 306 23 43 24 360 136 92 19 340 317 309 307 293 288 306 319 331 85 80 55 307 292 124 136 129 91 102 127 127 118 112 131 237 280 325 339 73 80 62 320 342 77 60 95 100 19 233 153 134 131 155 189 171 149 139 138 143 149 154 157 157 155 155 157 159 164 168 168 167
Height
1499 1498 1497 1496 1495 1495 1494 1493 1493 1492 1491 1490 1489 1489 1488 1486 1485 1484 1484 1483 1482 1481 1481 1480 1480 1480 1479 1480 1480 1479 1480 1479 1479 1479 1474 1472 1477 1479 1480 1481 1481 1481 1482 1483 1483 1484 1484 1485 1486 1486 1487 1488 1490 1491 1492 1493 1494 1495 1498 1502 1502 1497 1494 1490 1486 1484 1482 1479 1478 1477 1477 1479 1476 1472 1471 1474 1477 1477 1481 1485 1485 1486 1487 1489 1491 1493 1495 1498
1498 1497 1496 1495 1494 1493 1493 1492 1491 1491 1490 1489 1488 1487 1487 1486 1485 1484 1483 1482 1481 1480 1479 1479 1478 1478 1478 1478 1479 1478 1478 1477 1477 1474 1468 1471 1477 1477 1478 1479 1480 1480 1481 1482 1483 1483 1484 1485 1485 1485 1487 1488 1489 1490 1491 1492 1492 1494 1497 1500 1497 1493 1489 1485 1482 1481 1480 1480 1478 1477 1476 1477 1476 1473 1472 1475 1480 1479 1481 1485 1486 1487 1489 1491 1493 1494 1496 1498
1497 1496 1495 1494 1493 1492 1491 1491 1490 1489 1489 1488 1487 1486 1486 1485 1484 1483 1482 1481 1480 1479 1478 1478 1477 1477 1476 1477 1478 1477 1477 1476 1475 1468 1466 1472 1475 1474 1476 1477 1478 1479 1479 1481 1482 1483 1484 1484 1485 1485 1486 1487 1488 1489 1490 1490 1491 1491 1494 1496 1492 1489 1486 1482 1481 1480 1479 1480 1479 1477 1474 1475 1476 1474 1473 1475 1479 1480 1479 1482 1484 1487 1489 1491 1493 1494 1496 1499
1496 1495 1494 1493 1492 1491 1490 1489 1489 1488 1487 1487 1486 1485 1484 1484 1483 1482 1481 1480 1479 1478 1477 1477 1476 1475 1475 1476 1477 1476 1477 1476 1471 1465 1466 1470 1470 1472 1474 1475 1477 1477 1478 1480 1481 1482 1483 1484 1485 1485 1486 1487 1488 1489 1489 1489 1489 1489 1490 1491 1488 1486 1484 1479 1479 1479 1478 1479 1478 1477 1475 1475 1476 1475 1474 1473 1479 1484 1480 1476 1476 1480 1485 1488 1491 1494 1495 1499
1495 1494 1493 1492 1491 1490 1489 1488 1487 1486 1486 1485 1484 1484 1483 1483 1482 1481 1480 1479 1478 1478 1477 1476 1475 1474 1474 1475 1475 1475 1478 1475 1467 1464 1466 1467 1467 1469 1471 1473 1475 1476 1477 1479 1480 1481 1482 1483 1484 1485 1485 1486 1487 1488 1488 1487 1488 1488 1486 1486 1485 1484 1482 1478 1478 1478 1477 1478 1478 1478 1476 1475 1476 1475 1474 1472 1476 1478 1476 1476 1474 1475 1478 1482 1487 1491 1495 1498
1493 1492 1492 1491 1490 1489 1488 1487 1486 1485 1485 1484 1483 1482 1482 1481 1481 1480 1479 1478 1477 1477 1476 1475 1474 1473 1473 1474 1474 1475 1476 1470 1464 1464 1464 1464 1464 1466 1469 1471 1473 1475 1476 1477 1478 1480 1481 1482 1484 1484 1485 1485 1487 1487 1486 1486 1487 1487 1485 1484 1483 1483 1481 1477 1476 1476 1477 1478 1478 1478 1477 1475 1476 1476 1476 1474 1474 1473 1474 1478 1480 1478 1479 1481 1485 1489 1493 1497
1492 1491 1490 1489 1488 1487 1487 1486 1485 1484 1483 1483 1482 1481 1480 1480 1479 1478 1477 1477 1476 1475 1475 1474 1473 1472 1472 1473 1473 1473 1473 1466 1462 1464 1463 1462 1462 1463 1467 1469 1471 1473 1474 1476 1477 1478 1480 1481 1482 1483 1484 1485 1486 1486 1485 1485 1486 1486 1485 1483 1481 1480 1479 1476 1475 1475 1476 1477 1476 1477 1477 1475 1476 1477 1477 1476 1476 1476 1477 1480 1483 1485 1485 1485 1488 1490 1493 1496
1490 1489 1488 1487 1487 1486 1485 1484 1483 1483 1482 1481 1480 1479 1479 1478 1478 1477 1476 1475 1474 1474 1474 1473 1472 1471 1471 1472 1471 1472 1469 1462 1461 1463 1462 1462 1462 1462 1465 1467 1469 1471 1472 1474 1475 1477 1479 1480 1481 1482 1484 1484 1484 1484 1484 1485 1485 1485 1484 1482 1479 1478 1477 1475 1473 1473 1473 1475 1476 1477 1477 1475 1475 1476 1477 1479 1479 1478 1479 1481 1484 1488 1489 1490 1491 1492 1494 1497
1487 1487 1487 1486 1485 1484 1484 1483 1482 1481 1480 1480 1479 1478 1477 1477 1477 1476 1475 1474 1473 1473 1473 1472 1472 1470 1471 1471 1471 1470 1462 1457 1461 1463 1462 1463 1462 1462 1464 1467 1469 1470 1471 1473 1474 1476 1477 1478 1480 1481 1483 1483 1483 1483 1483 1485 1485 1482 1482 1480 1478 1477 1475 1474 1473 1471 1471 1473 1475 1477 1477 1476 1474 1475 1480 1482 1481 1481 1481 1483 1485 1488 1491 1493 1494 1495 1497 1500
1485 1485 1484 1484 1483 1483 1482 1481 1481 1480 1479 1478 1477 1477 1476 1476 1475 1474 1473 1473 1472 1472 1472 1472 1470 1470 1470 1469 1471 1468 1458 1457 1460 1461 1461 1462 1462 1463 1464 1467 1468 1469 1471 1472 1473 1475 1475 1477 1479 1481 1483 1482 1482 1482 1482 1483 1482 1479 1479 1479 1477 1476 1474 1474 1472 1469 1469 1471 1474 1477 1478 1476 1474 1476 1482 1484 1483 1484 1484 1485 1488 1490 1492 1494 1496 1498 1501 1504
1483 1482 1482 1481 1481 1481 1480 1480 1479 1478 1478 1477 1476 1475 1475 1474 1473 1473 1472 1471 1471 1471 1471 1470 1470 1470 1469 1469 1469 1463 1455 1456 1458 1458 1460 1460 1461 1463 1463 1466 1467 1469 1470 1471 1472 1473 1475 1477 1480 1481 1482 1481 1481 1481 1481 1480 1480 1479 1479 1478 1476 1475 1473 1473 1472 1469 1469 1470 1471 1473 1476 1477 1475 1477 1480 1482 1484 1486 1485 1487 1490 1492 1493 1495 1497 1500 1503 1506
1480 1479 1479 1479 1479 1479 1478 1478 1477 1477 1476 1475 1475 1473 1473 1472 1472 1471 1470 1470 1470 1469 1470 1469 1469 1468 1468 1468 1462 1455 1454 1456 1456 1457 1458 1458 1460 1462 1463 1464 1466 1467 1469 1470 1471 1472 1474 1477 1479 1480 1480 1480 1480 1480 1479 1479 1479 1478 1478 1478 1475 1474 1473 1471 1470 1469 1468 1470 1470 1471 1478 1480 1478 1479 1480 1482 1485 1487 1488 1489 1492 1494 1495 1496 1498 1501 1503 1505
1477 1477 1477 1477 1476 1476 1476 1476 1475 1475 1474 1474 1473 1472 1472 1471 1470 1469 1468 1469 1468 1468 1468 1468 1468 1467 1468 1463 1453 1450 1455 1456 1455 1456 1456 1457 1459 1460 1462 1463 1464 1466 1467 1469 1470 1472 1474 1475 1478 1479 1479 1480 1480 1479 1478 1477 1478 1477 1477 1478 1477 1477 1474 1469 1468 1468 1467 1468 1468 1472 1484 1487 1482 1482 1481 1482 1485 1488 1490 1491 1492 1494 1496 1497 1499 1501 1502 1503
1475 1475 1474 1474 1474 1473 1474 1474 1474 1473 1472 1472 1471 1471 1470 1469 1468 1467 1467 1467 1466 1467 1467 1467 1467 1466 1466 1457 1448 1451 1455 1454 1454 1454 1455 1457 1458 1460 1461 1462 1463 1465 1466 1467 1469 1472 1473 1474 1477 1478 1479 1479 1479 1479 1478 1478 1478 1477 1478 1478 1481 1483 1477 1468 1467 1469 1468 1466 1465 1470 1484 1489 1485 1484 1483 1483 1485 1486 1489 1492 1493 1495 1496 1498 1500 1501 1502 1503
1473 1472 1472 1471 1471 1470 1471 1471 1471 1471 1470 1470 1470 1469 1468 1467 1466 1466 1466 1465 1465 1466 1465 1466 1465 1465 1464 1453 1447 1450 1452 1452 1453 1453 1455 1456 1457 1459 1460 1462 1463 1464 1465 1466 1468 1471 1472 1473 1476 1477 1478 1478 1478 1480 1480 1480 1479 1479 1482 1484 1484 1484 1477 1469 1466 1467 1467 1466 1464 1469 1482 1489 1486 1484 1483 1484 1485 1486 1489 1491 1493 1495 1496 1498 1499 1500 1502 1504
1470 1470 1469 1469 1468 1468 1468 1468 1469 1469 1468 1468 1468 1467 1466 1465 1465 1464 1464 1463 1464 1464 1464 1465 1464 1465 1464 1452 1446 1448 1448 1449 1451 1452 1454 1454 1456 1457 1459 1461 1461 1463 1464 1465 1468 1470 1472 1473 1474 1475 1476 1477 1478 1480 1482 1484 1483 1482 1484 1486 1485 1482 1478 1473 1468 1466 1465 1466 1466 1469 1480 1488 1486 1484 1485 1485 1486 1487 1488 1491 1493 1495 1496 1497 1498 1499 1501 1504
1468 1467 1467 1466 1466 1466 1465 1465 1466 1467 1466 1466 1466 1465 1464 1464 1463 1463 1462 1463 1463 1462 1463 1464 1463 1465 1459 1447 1445 1446 1445 1447 1448 1450 1452 1452 1454 1456 1458 1460 1460 1463 1464 1465 1467 1469 1471 1471 1472 1474 1474 1476 1477 1479 1486 1490 1489 1486 1485 1485 1483 1482 1480 1476 1471 1467 1467 1468 1469 1470 1476 1482 1483 1483 1485 1486 1488 1488 1488 1490 1492 1494 1495 1496 1497 1499 1501 1503
1465 1464 1464 1464 1463 1463 1463 1463 1464 1464 1464 1464 1464 1463 1462 1462 1462 1461 1461 1462 1461 1462 1464 1462 1464 1464 1451 1442 1443 1444 1443 1445 1446 1447 1449 1451 1453 1455 1457 1459 1460 1462 1463 1464 1466 1467 1469 1469 1470 1473 1473 1475 1476 1479 1486 1489 1486 1485 1485 1484 1483 1482 1480 1478 1472 1468 1469 1470 1472 1474 1476 1481 1482 1482 1484 1486 1489 1492 1489 1489 1491 1493 1494 1495 1496 1498 1500 1502
1463 1462 1461 1461 1461 1461 1461 1461 1462 1462 1462 1462 1462 1461 1460 1460 1460 1459 1459 1460 1459 1460 1460 1457 1457 1454 1443 1439 1442 1442 1443 1443 1443 1444 1446 1449 1452 1454 1456 1458 1459 1460 1462 1464 1465 1465 1467 1468 1470 1472 1474 1475 1475 1477 1480 1481 1480 1480 1481 1482 1482 1482 1480 1477 1472 1468 1469 1471 1473 1475 1478 1483 1485 1483 1484 1486 1488 1491 1490 1489 1491 1493 1494 1495 1497 1498 1500 1503
1460 1460 1459 1459 1458 1459 1459 1459 1460 1460 1460 1460 1459 1459 1459 1458 1458 1457 1457 1456 1454 1452 1451 1449 1447 1444 1440 1440 1441 1441 1443 1442 1442 1443 1445 1448 1451 1453 1455 1457 1458 1459 1461 1462 1463 1463 1465 1469 1470 1469 1471 1472 1473 1474 1475 1477 1478 1478 1480 1481 1482 1483 1480 1475 1472 1469 1469 1472 1473 1475 1479 1483 1484 1482 1483 1486 1489 1492 1494 1493 1492 1493 1494 1495 1496 1498 1500 1502
1458 1457 1457 1456 1456 1456 1457 1457 1457 1458 1457 1457 1458 1458 1457 1457 1457 1456 1455 1453 1450 1449 1448 1446 1447 1443 1439 1440 1440 1442 1444 1442 1441 1441 1443 1446 1449 1451 1453 1455 1457 1459 1460 1460 1462 1462 1464 1468 1468 1467 1469 1470 1472 1473 1473 1476 1477 1478 1480 1481 1482 1483 1479 1473 1472 1470 1469 1473 1474 1474 1480 1484 1483 1482 1481 1484 1489 1492 1495 1494 1492 1492 1494 1495 1496 1498 1500 1502
1455 1455 1454 1454 1454 1454 1454 1455 1455 1455 1455 1455 1456 1456 1455 1456 1457 1455 1455 1452 1447 1447 1446 1445 1445 1441 1436 1438 1440 1443 1447 1444 1440 1439 1441 1444 1446 1448 1450 1453 1456 1458 1459 1460 1462 1464 1466 1466 1465 1466 1468 1469 1471 1472 1473 1475 1477 1479 1481 1482 1483 1481 1478 1473 1471 1470 1470 1472 1473 1473 1480 1484 1482 1480 1481 1482 1485 1486 1487 1489 1490 1491 1493 1495 1496 1497 1499 1501
1452 1452 1452 1452 1451 1452 1452 1453 1453 1454 1453 1453 1454 1454 1453 1454 1455 1454 1455 1453 1446 1442 1442 1442 1441 1437 1433 1436 1439 1443 1446 1444 1440 1438 1439 1442 1443 1446 1448 1451 1455 1456 1457 1459 1462 1466 1469 1465 1463 1465 1467 1469 1471 1472 1473 1475 1476 1479 1480 1482 1483 1479 1479 1477 1473 1472 1470 1471 1472 1473 1479 1484 1483 1482 1481 1482 1483 1484 1485 1489 1491 1492 1494 1495 1496 1498 1499 1500
1449 1449 1450 1449 1450 1450 1450 1451 1452 1451 1451 1452 1453 1453 1453 1453 1453 1454 1454 1452 1445 1438 1436 1436 1436 1433 1430 1434 1438 1441 1442 1441 1439 1436 1437 1440 1441 1444 1447 1448 1452 1455 1457 1458 1461 1465 1465 1461 1460 1464 1466 1467 1469 1471 1474 1476 1477 1479 1479 1480 1480 1478 1478 1478 1476 1473 1471 1470 1471 1474 1484 1489 1487 1486 1485 1485 1487 1488 1488 1491 1494 1494 1495 1498 1500 1500 1501 1502
1446 1447 1447 1447 1448 1448 1448 1449 1448 1449 1449 1451 1452 1452 1453 1452 1452 1453 1453 1451 1444 1436 1432 1432 1432 1428 1426 1433 1437 1438 1439 1437 1434 1434 1436 1439 1440 1443 1445 1447 1450 1453 1456 1458 1461 1464 1463 1459 1459 1463 1466 1467 1468 1470 1472 1474 1477 1479 1476 1474 1476 1477 1477 1478 1477 1477 1479 1478 1471 1473 1489 1496 1490 1486 1485 1487 1490 1491 1492 1494 1494 1493 1495 1500 1502 1502 1502 1504
1444 1445 1445 1446 1446 1446 1447 1446 1445 1447 1448 1449 1451 1451 1452 1451 1451 1452 1453 1453 1443 1431 1428 1428 1427 1422 1422 1429 1433 1437 1440 1434 1429 1432 1435 1437 1439 1441 1444 1446 1447 1451 1455 1456 1460 1461 1459 1458 1458 1461 1464 1466 1468 1469 1469 1470 1476 1479 1473 1470 1473 1475 1477 1478 1479 1482 1486 1483 1472 1471 1485 1496 1496 1490 1484 1485 1488 1492 1495 1495 1494 1493 1495 1498 1501 1502 1503 1504
1441 1442 1443 1444 1444 1445 1446 1443 1443 1445 1447 1448 1449 1450 1450 1449 1451 1451 1452 1453 1439 1422 1421 1424 1422 1419 1418 1422 1427 1434 1437 1429 1426 1431 1432 1435 1438 1439 1443 1445 1446 1449 1451 1454 1460 1458 1454 1456 1459 1460 1463 1466 1468 1468 1467 1468 1474 1476 1469 1468 1472 1474 1476 1477 1479 1484 1483 1480 1475 1472 1477 1489 1496 1493 1485 1484 1488 1493 1496 1495 1493 1493 1494 1498 1500 1502 1503 1505
1439 1440 1441 1441 1442 1443 1443 1443 1443 1443 1445 1447 1446 1449 1449 1448 1450 1451 1452 1448 1428 1413 1416 1418 1417 1417 1417 1420 1424 1427 1427 1423 1424 1428 1430 1434 1436 1437 1441 1443 1445 1448 1448 1452 1460 1455 1450 1454 1457 1459 1463 1465 1465 1464 1465 1467 1470 1470 1466 1467 1469 1470 1473 1474 1478 1483 1482 1483 1482 1475 1475 1486 1495 1492 1487 1488 1489 1492 1494 1493 1492 1492 1494 1497 1500 1502 1504 1506
1437 1438 1439 1440 1440 1440 1441 1442 1441 1442 1445 1446 1446 1447 1446 1448 1450 1450 1452 1441 1418 1409 1412 1412 1414 1417 1417 1420 1424 1423 1422 1422 1422 1424 1429 1433 1434 1436 1440 1442 1444 1448 1448 1450 1455 1453 1449 1451 1453 1457 1461 1460 1460 1460 1462 1465 1467 1466 1465 1467 1467 1469 1472 1473 1478 1481 1482 1488 1486 1476 1475 1484 1496 1496 1491 1491 1490 1489 1491 1490 1490 1492 1494 1497 1499 1502 1504 1507
1435 1436 1437 1438 1438 1438 1439 1440 1440 1442 1445 1446 1446 1445 1444 1447 1448 1452 1453 1434 1413 1410 1411 1411 1413 1415 1417 1421 1424 1423 1422 1422 1420 1423 1429 1431 1434 1437 1440 1442 1444 1446 1448 1449 1452 1451 1448 1449 1451 1453 1454 1454 1456 1459 1461 1463 1464 1464 1466 1468 1470 1472 1472 1474 1479 1479 1485 1491 1481 1473 1473 1477 1491 1497 1490 1488 1485 1483 1486 1490 1491 1493 1495 1496 1498 1501 1504 1506
1433 1434 1435 1436 1436 1437 1438 1439 1439 1441 1444 1444 1444 1444 1445 1445 1446 1451 1445 1422 1412 1413 1411 1412 1414 1413 1416 1419 1421 1423 1423 1422 1421 1422 1427 1430 1434 1438 1439 1442 1444 1446 1450 1450 1450 1450 1449 1450 1449 1447 1449 1451 1454 1458 1460 1461 1463 1465 1467 1470 1475 1478 1477 1479 1481 1481 1490 1491 1474 1469 1473 1473 1484 1492 1486 1481 1480 1479 1482 1484 1487 1490 1492 1495 1497 1500 1504 1506
1432 1432 1433 1434 1435 1436 1437 1438 1439 1440 1442 1442 1442 1442 1443 1445 1448 1448 1434 1416 1415 1416 1410 1412 1413 1412 1416 1417 1417 1420 1421 1422 1421 1421 1425 1428 1433 1435 1436 1438 1440 1447 1454 1453 1453 1453 1450 1449 1447 1446 1447 1449 1453 1460 1463 1462 1464 1467 1470 1474 1482 1487 1488 1488 1486 1487 1490 1484 1473 1472 1474 1473 1481 1485 1481 1478 1477 1478 1479 1478 1480 1484 1488 1492 1496 1500 1503 1505
1430 1431 1432 1432 1433 1435 1436 1436 1438 1440 1440 1440 1440 1438 1440 1446 1445 1437 1428 1420 1418 1415 1410 1411 1411 1411 1415 1416 1416 1418 1420 1422 1421 1421 1423 1426 1431 1434 1434 1434 1435 1440 1449 1452 1455 1457 1455 1451 1447 1447 1446 1445 1449 1458 1462 1463 1464 1467 1470 1475 1483 1488 1493 1494 1493 1494 1489 1477 1475 1476 1471 1475 1484 1483 1479 1478 1476 1477 1480 1482 1483 1486 1488 1492 1497 1500 1502 1504
1429 1430 1431 1432 1433 1434 1435 1436 1438 1440 1440 1439 1438 1436 1441 1447 1439 1427 1426 1424 1419 1414 1412 1411 1411 1412 1414 1414 1413 1415 1420 1422 1420 1420 1422 1425 1431 1433 1433 1433 1433 1434 1441 1449 1454 1455 1459 1456 1447 1444 1444 1441 1444 1449 1452 1456 1461 1464 1465 1470 1477 1478 1481 1486 1486 1486 1481 1473 1477 1479 1475 1481 1486 1481 1478 1477 1477 1478 1482 1485 1487 1490 1493 1495 1498 1500 1502 1504
1429 1430 1431 1432 1433 1434 1435 1436 1438 1439 1440 1439 1437 1436 1441 1443 1435 1427 1427 1426 1421 1418 1414 1410 1409 1413 1415 1414 1412 1413 1417 1420 1419 1420 1422 1425 1429 1430 1431 1432 1432 1433 1437 1447 1451 1449 1454 1452 1440 1438 1440 1438 1441 1444 1445 1452 1459 1462 1462 1467 1472 1468 1467 1476 1479 1477 1473 1471 1479 1486 1485 1485 1482 1478 1477 1476 1477 1480 1483 1486 1489 1492 1494 1496 1499 1500 1502 1503
1430 1430 1431 1432 1433 1434 1435 1437 1438 1438 1439 1439 1437 1437 1439 1436 1432 1431 1430 1427 1426 1423 1418 1411 1408 1413 1417 1415 1413 1414 1414 1417 1419 1420 1422 1424 1426 1427 1428 1428 1429 1431 1432 1440 1446 1446 1451 1449 1437 1436 1438 1436 1438 1441 1442 1448 1455 1460 1463 1464 1464 1460 1460 1470 1478 1481 1478 1475 1485 1495 1491 1485 1483 1481 1479 1477 1479 1481 1484 1487 1490 1492 1494 1496 1499 1500 1502 1504
1431 1431 1432 1432 1433 1435 1436 1437 1438 1438 1438 1439 1439 1438 1436 1433 1432 1433 1431 1429 1428 1425 1422 1417 1410 1412 1417 1415 1414 1415 1415 1417 1419 1420 1423 1424 1425 1425 1426 1426 1427 1429 1429 1433 1439 1441 1445 1445 1436 1434 1438 1435 1435 1438 1439 1442 1447 1455 1460 1459 1458 1460 1463 1465 1472 1481 1482 1480 1490 1496 1490 1485 1488 1487 1482 1480 1481 1482 1485 1487 1490 1493 1495 1497 1499 1501 1503 1506
1432 1432 1432 1433 1434 1435 1437 1437 1438 1439 1439 1439 1440 1437 1434 1433 1433 1433 1432 1430 1428 1425 1423 1421 1414 1410 1413 1415 1414 1413 1416 1419 1420 1421 1422 1424 1423 1421 1423 1425 1425 1427 1428 1430 1435 1437 1440 1443 1437 1431 1434 1434 1433 1440 1444 1442 1441 1446 1449 1449 1454 1463 1467 1466 1470 1477 1481 1490 1499 1496 1490 1488 1487 1485 1481 1480 1481 1481 1483 1487 1489 1492 1495 1497 1499 1501 1503 1507
1433 1434 1434 1434 1436 1437 1438 1438 1439 1439 1439 1441 1442 1439 1435 1435 1434 1434 1435 1433 1430 1428 1425 1421 1417 1413 1412 1412 1413 1413 1416 1419 1421 1421 1421 1422 1422 1419 1419 1421 1424 1426 1427 1429 1433 1434 1437 1442 1440 1431 1429 1431 1434 1441 1446 1445 1442 1442 1445 1447 1449 1455 1459 1461 1467 1468 1473 1494 1505 1498 1495 1492 1482 1478 1477 1475 1477 1478 1480 1485 1487 1490 1494 1496 1499 1501 1503 1507
1434 1435 1436 1437 1438 1438 1439 1440 1440 1440 1441 1442 1443 1440 1437 1436 1435 1435 1435 1435 1433 1431 1428 1423 1420 1419 1414 1411 1412 1412 1415 1418 1419 1419 1419 1419 1420 1419 1417 1418 1421 1425 1427 1429 1432 1433 1436 1441 1442 1435 1430 1433 1437 1437 1439 1442 1443 1444 1447 1450 1450 1450 1453 1457 1464 1465 1466 1485 1501 1499 1498 1490 1475 1471 1473 1473 1475 1476 1477 1482 1486 1490 1494 1496 1499 1501 1503 1506
1435 1436 1439 1439 1439 1440 1440 1441 1441 1441 1442 1442 1442 1440 1438 1437 1437 1435 1434 1435 1434 1432 1428 1424 1422 1421 1417 1415 1413 1410 1413 1417 1417 1417 1418 1418 1419 1419 1416 1416 1418 1422 1426 1430 1432 1432 1436 1439 1441 1439 1436 1436 1433 1429 1430 1433 1436 1438 1442 1447 1448 1448 1453 1460 1468 1469 1465 1473 1486 1489 1487 1481 1473 1470 1471 1472 1474 1476 1478 1481 1486 1491 1493 1496 1499 1501 1503 1506
1435 1437 1440 1440 1440 1440 1441 1442 1442 1442 1442 1443 1441 1440 1439 1438 1438 1435 1433 1433 1433 1430 1426 1423 1420 1418 1416 1415 1412 1410 1411 1415 1416 1416 1416 1416 1416 1415 1413 1413 1416 1419 1424 1429 1430 1430 1432 1437 1440 1440 1436 1434 1429 1426 1428 1428 1429 1433 1435 1441 1446 1445 1447 1456 1463 1465 1466 1471 1480 1482 1477 1474 1473 1472 1470 1472 1475 1478 1481 1483 1487 1491 1493 1496 1500 1502 1505 1507
1437 1438 1440 1441 1441 1441 1442 1443 1443 1443 1443 1442 1441 1440 1439 1439 1438 1436 1433 1432 1431 1427 1423 1420 1416 1413 1412 1411 1410 1410 1409 1412 1415 1414 1414 1414 1413 1411 1411 1412 1415 1418 1421 1426 1429 1428 1431 1436 1440 1440 1435 1430 1427 1426 1427 1426 1428 1433 1434 1437 1441 1440 1440 1446 1451 1455 1462 1470 1474 1477 1477 1475 1473 1473 1472 1474 1477 1480 1483 1485 1487 1492 1495 1497 1500 1503 1505 1507
1439 1440 1441 1442 1442 1442 1443 1444 1445 1445 1444 1442 1442 1440 1439 1438 1437 1435 1433 1431 1430 1426 1422 1418 1413 1410 1410 1409 1409 1409 1408 1410 1413 1412 1411 1412 1409 1408 1410 1411 1413 1416 1418 1422 1424 1426 1432 1438 1441 1443 1442 1439 1436 1434 1433 1431 1430 1431 1433 1435 1435 1436 1439 1444 1448 1451 1458 1467 1466 1465 1473 1477 1473 1473 1474 1476 1479 1482 1485 1487 1488 1491 1495 1497 1500 1503 1505 1507
1442 1442 1443 1443 1444 1443 1444 1445 1446 1446 1445 1443 1442 1440 1438 1437 1434 1433 1431 1428 1426 1424 1422 1417 1412 1410 1410 1409 1409 1409 1407 1408 1411 1409 1409 1410 1408 1406 1408 1410 1413 1414 1415 1418 1419 1422 1431 1436 1438 1443 1448 1449 1447 1442 1438 1436 1432 1431 1432 1433 1433 1435 1437 1442 1448 1452 1457 1467 1466 1459 1467 1476 1475 1474 1476 1478 1481 1483 1486 1488 1489 1490 1494 1497 1499 1502 1505 1507
1442 1444 1445 1445 1445 1445 1444 1445 1446 1446 1445 1444 1442 1438 1437 1437 1433 1429 1428 1424 1419 1419 1420 1416 1412 1411 1411 1411 1411 1411 1408 1406 1407 1407 1408 1409 1407 1405 1405 1407 1410 1412 1414 1416 1418 1421 1428 1433 1435 1436 1439 1440 1438 1436 1433 1431 1431 1432 1433 1433 1434 1434 1434 1439 1448 1451 1454 1462 1465 1462 1466 1473 1474 1473 1475 1477 1479 1482 1485 1487 1489 1490 1493 1497 1500 1502 1504 1506
1443 1445 1446 1446 1447 1446 1445 1445 1445 1445 1444 1444 1442 1439 1436 1436 1433 1428 1425 1420 1414 1414 1415 1415 1413 1411 1412 1415 1414 1412 1411 1409 1407 1408 1410 1409 1408 1406 1404 1406 1408 1410 1412 1414 1416 1420 1426 1432 1433 1432 1433 1433 1432 1433 1431 1428 1432 1436 1436 1436 1436 1435 1436 1439 1443 1446 1451 1457 1462 1464 1467 1469 1470 1470 1471 1473 1475 1478 1482 1484 1487 1489 1492 1496 1499 1501 1504 1506
1444 1445 1445 1445 1447 1447 1445 1444 1443 1443 1443 1443 1442 1439 1436 1434 1433 1429 1423 1416 1411 1411 1412 1413 1414 1413 1414 1416 1416 1415 1415 1413 1411 1411 1411 1411 1410 1406 1405 1406 1407 1408 1411 1414 1415 1417 1422 1430 1433 1433 1436 1437 1436 1434 1430 1431 1439 1444 1443 1440 1438 1438 1437 1435 1439 1444 1446 1447 1452 1460 1466 1466 1465 1466 1466 1468 1470 1473 1479 1483 1486 1489 1492 1495 1498 1501 1504 1507
1445 1445 1445 1445 1445 1444 1443 1442 1441 1441 1442 1441 1441 1438 1435 1433 1431 1427 1422 1416 1412 1411 1411 1414 1416 1414 1414 1415 1417 1420 1419 1416 1415 1413 1412 1413 1411 1406 1407 1410 1408 1408 1410 1412 1415 1415 1420 1428 1432 1433 1438 1440 1440 1437 1432 1432 1440 1445 1448 1447 1443 1442 1440 1437 1442 1448 1446 1446 1450 1457 1466 1467 1464 1464 1466 1469 1472 1476 1480 1485 1487 1490 1493 1495 1499 1502 1504 1507
1446 1446 1445 1445 1445 1443 1442 1441 1440 1440 1440 1439 1439 1435 1432 1430 1427 1424 1422 1418 1417 1415 1414 1417 1418 1415 1415 1416 1419 1421 1419 1417 1418 1416 1414 1414 1412 1408 1411 1413 1410 1409 1409 1411 1414 1414 1419 1429 1431 1431 1439 1443 1441 1441 1438 1434 1438 1444 1450 1451 1445 1443 1444 1443 1448 1450 1448 1453 1459 1462 1468 1471 1467 1467 1469 1472 1475 1478 1482 1485 1488 1491 1493 1496 1499 1502 1504 1507
1447 1446 1446 1446 1444 1442 1441 1439 1438 1439 1438 1438 1437 1434 1430 1428 1425 1424 1423 1420 1420 1420 1419 1419 1418 1416 1416 1418 1419 1419 1417 1416 1417 1417 1414 1414 1412 1410 1412 1413 1412 1411 1409 1411 1414 1413 1417 1431 1433 1430 1441 1447 1442 1444 1445 1438 1438 1443 1448 1452 1449 1445 1446 1449 1453 1452 1448 1454 1464 1468 1469 1469 1466 1466 1470 1473 1476 1478 1481 1484 1487 1491 1493 1495 1498 1501 1503 1505
1447 1446 1446 1446 1444 1440 1439 1438 1436 1437 1437 1436 1435 1432 1430 1428 1425 1425 1424 1421 1420 1420 1420 1420 1418 1417 1419 1420 1419 1417 1416 1415 1415 1415 1413 1412 1411 1410 1412 1414 1412 1410 1409 1411 1416 1416 1418 1428 1433 1433 1442 1447 1442 1445 1448 1440 1440 1446 1449 1453 1456 1453 1452 1454 1455 1454 1450 1452 1461 1462 1458 1459 1462 1465 1469 1474 1476 1478 1480 1482 1485 1489 1492 1495 1496 1499 1501 1504